STARLINK-35986, 66853

Orbit data source: Space-Track

STARLINK-35986, 66853 is a payload satellite owned by SpaceX/Seattle (US) in LEO that was launched on Tue, 02 Dec 2025 UTC via an FALCON 9 launch vehicle from the Air Force Eastern Test Range (AFETR). Payload-class satellites include a variety of spacecraft equipped with specific instruments for various scientific and technological missions. These include communications satellites like Starlink; space stations such as the ISS; scientific satellites like the Hubble; Earth observation satellites from companies like Planet Labs, Umbra, and HawkEye 360; GPS; miniature CubeSats for education and research; and military/defense satellites.

Loading next visibility...
Identifier
66853, 2025-281F
Orbit
LEO
Country
Flag of USUS
Related business
Manufacturer
SpaceX/Seattle
Mission
Operational Commercial Communications
Bus & Motor
STARLINK V2MO, Unknown motor
Mass
575 kg wet, ~530 kg dry
Launch date (UTC)
2025-12-02 (7 months ago)
Launch vehicle
FALCON 9
Launch site
Air Force Eastern Test Range (AFETR)
Object type
Payload
Rocket body
Debris
Shape & HBR
Box + 2 Pan, 17.7 m
Radar Cross Section
36.964 m², Large (>1 m²)

Expand to show TLE details & history
Last TLE update: 20 hours ago

TLE from 20 hours ago
0 STARLINK-35986
1 66853U 25281F   26170.99271267  .00021453  00000-0  78656-3 0  9995
2 66853  43.0015 125.5363 0001006 292.8566  67.2180 15.27592320 31838
Epoch: 2026-06-19T23:49Z
TLE epoch observation values (Epoch: 2026-06-19T23:49:30.374Z)
Latitude
0.00002°
Longitude
-140.05397°
Altitude
482.521 km
Speed
7.626 km/s
True Right ascension
08h 22m 08s
True Declination
0° 00' 00"
Sunlit
Object was in daylight at epoch
Visualization orbit readout
Latitude
Unknown
Longitude
Unknown
Altitude
Unknown
Speed
Unknown
Apparent Right ascension
Unknown
Apparent Declination
Unknown
Sunlit
N/A
Visualization observer readout
Local Sidereal Time
07:13:14
Azimuth
Unknown
Elevation
Unknown
Doppler factor
Unknown
Orbital elements
Apogee altitude
485.648 km
Perigee altitude
484.267 km
Semi-major axis
6,863.094 km
Eccentricity
0.0001
Inclination
43.0015°
RAAN
125.5363°
Arg. of periapsis
292.8566°
True anomaly
67.22863°
Mean anomaly
67.218°
Eccentric anomaly
67.22331°
Mean motion
3.81736 °/min
Orbital period
94.31 mins
BSTAR
0.00078656
Loading maneuver chart data...
Computing Atmospheric mass density...
Loading historical data...
Loading historical data...
Loading historical data...
Loading historical data...
Loading historical data...
Loading historical data...
Loading historical data...

Documentation

Showing up to 5 results
|